Weather in Montargis

France     47°59′54″N   2°44′18″E
temp.,
°C
wind,
m/s
gust,
m/s
humid.,
%
clouds,
%
prec.,
mm/h
press.,
hPa
HPBL,
m
25 february, thu
thu2501:00+11s36830 0.0 1028104
04:00+9s35830 0.0 102793
07:00+8s347141 0.0 102780
10:00+11ssw366479 0.0 1028243
13:00+15sw355584 0.0 1028496
16:00+16sw3559100 0.0 1028834
19:00+12w2278100 0.0 102922
22:00+10w2288100 0.0 103122
26 february, fri
fri2601:00+9nw1292100 0.0 103225
04:00+10nne249199 0.0 1032171
07:00+9n4690100 0.1 1032261
10:00+9nne3594100 0.7 1033290
13:00+9nne4694100 3.4 1033367
16:00+9n5896100 6.9 1032366
19:00+9nne61193100 10.7 1032511
22:00+9nne6138599 0.4 1033604
27 february, sat
sat2701:00+8ne5118497 0.6 1034495
04:00+5nne6128774 0.0 1034371
07:00+4nne5118642 0.0 1034358
10:00+6nne611770 0.0 1035491
13:00+10ne710600 0.0 1034828
16:00+10ne710611 0.0 1033970
19:00+7nne412750 0.0 1033434
22:00+5ne5128025 0.0 1033453
28 february, sun
sun2801:00+4ne5137821 0.0 1032481
04:00+3ne411870 0.0 1031368
07:00+2ne411900 0.0 1030344
10:00+5ene59780 0.0 1030461
13:00+9ene68670 0.0 1029753
16:00+11ene57650 0.0 1027829
19:00+7ne49810 0.0 1027196
22:00+5ene49840 0.0 1028205
1 march, mon
mon101:00+4ene36883 0.0 1028118
04:00+4ene338948 0.0 102774
07:00+3e339158 0.0 102777
10:00+8e237843 0.0 1027193
13:00+14ese246541 0.0 1026639
16:00+16ese34583 0.0 10251077
19:00+10e34822 0.0 102548
22:00+9ese23870 0.0 102729